Wetbulb
46.06 39.53 35.36 37.79 39.80 41.90 41.30 42.02 40.65 43.83 43.05 39.37 36.57 37.17 37.56 38.36 38.80 38.58 40.84 39.76 40.82 41.55 43.57 44.26 44.78 44.85 45.25 45.69 46.41 47.32 48.08 49.04 54.75 57.95 61.24 62.06 60.53 58.48 57.69 56.98 56.31 53.38 53.22 54.36
41.43 37.15 39.38 41.42 42.19 41.68 41.23 39.94 38.55 42.83 44.21 41.34 37.94 36.12 38.90 39.72 37.88 37.76 38.11 38.44 39.55 40.09 40.87 42.14 42.42 42.64 42.64 42.96 44.14 44.90 45.57 46.37 48.89 52.03 57.60 59.60 57.10 54.07 52.86 52.97 51.64 51.45 49.18 49.44
36.13 38.81 43.13 41.41 40.22 39.97 39.53 38.35 35.98 37.86 43.10 42.45 39.88 37.53 38.18 38.77 39.07 39.52 39.09 39.13 39.11 38.96 39.24 39.38 39.77 39.48 40.12 40.19 40.92 42.57 43.20 43.98 45.13 48.67 51.31 50.96 51.00 49.05 47.67 47.28 47.38 47.50 46.74 45.76
36.84 39.87 40.99 39.90 38.78 41.13 37.43 42.66 40.19 40.43 39.66 34.50 41.56 32.19 38.24 36.65 35.17 35.84 36.77 38.35 37.88 38.99 39.65 39.67 38.87 38.33 38.24 38.63 39.88 41.15 41.68 41.45 42.40 44.11 45.19 44.58 43.12 41.63 43.17 44.26 44.46 44.60 45.24 43.32
34.73 35.67 36.21 37.89 39.51 42.26 39.46 42.67 40.38 39.95 35.76 35.66 36.53 34.41 35.01 36.85 34.43 35.17 35.85 37.01 37.83 38.45 38.72 38.24 38.49 38.83 38.84 38.92 38.55 39.89 40.54 40.39 40.34 40.85 41.56 41.41 40.68 41.13 41.00 41.14 41.05 41.77 42.40 42.08
36.81 39.95 38.37 37.22 40.81 43.02 44.50 41.58 39.93 38.97 37.35 30.08 34.37 33.15 28.88 34.09 35.85 35.50 36.97 37.70 38.39 38.67 38.88 39.13 39.90 39.37 37.98 38.01 39.02 39.56 39.59 39.63 40.05 39.62 39.59 39.67 39.29 39.41 38.52 38.96 38.66 39.21 40.05 40.13
35.32 36.04 38.34 39.47 38.81 43.02 42.76 38.59 29.45 28.02 28.73 25.68 33.76 32.01 28.76 33.60 36.36 35.97 35.31 36.54 37.57 37.69 37.05 37.65 37.83 37.60 37.22 37.24 37.75 38.32 37.65 37.18 38.53 37.96 37.25 37.05 37.58 37.75 36.81 36.79 36.69 36.55 36.84 37.18
30.17 27.99 35.86 38.17 39.48 39.25 40.00 38.66 29.22 22.64 23.74 25.41 33.54 29.57 28.12 32.90 35.50 36.42 36.81 36.49 36.85 36.34 37.15 37.06 37.14 37.02 36.54 36.29 35.98 36.01 36.17 36.07 36.87 37.09 36.11 36.00 36.12 36.35 36.13 35.52 35.13 35.06 35.04 35.75
31.88 29.70 37.01 37.54 38.87 41.71 38.29 34.60 36.58 28.43 24.93 26.75 29.63 27.44 31.06 32.24 32.59 34.26 34.47 35.28 35.24 36.01 36.35 35.96 35.86 35.51 34.94 34.79 34.47 34.30 34.48 34.50 34.98 35.32 34.88 34.01 33.99 33.98 33.63 33.61 33.53 33.29 33.88 35.28
34.30 29.95 35.63 36.18 38.06 38.36 39.09 38.71 32.10 30.99 21.78 21.83 25.23 23.03 24.23 27.67 29.90 31.96 32.70 33.46 34.73 35.78 35.39 34.87 34.51 34.39 34.12 33.87 33.73 33.76 33.48 32.77 33.38 33.84 33.41 32.71 32.18 32.14 31.76 31.32 30.43 30.93 31.64 32.85
36.59 33.52 32.83 36.00 30.93 31.55 32.37 32.85 33.08 32.81 29.46 23.00 20.07 23.73 30.43 31.33 32.12 31.36 31.91 33.62 34.77 34.91 34.43 33.95 33.38 33.23 32.69 32.38 31.83 31.61 31.62 31.39 31.62 32.31 31.89 30.56 30.05 29.86 29.85 29.38 29.35 29.51 30.17 31.16
38.04 33.94 29.40 31.47 32.93 35.01 35.58 32.99 32.76 26.69 25.77 27.31 26.45 23.87 31.42 34.25 33.56 32.62 31.87 33.22 34.07 34.98 33.82 33.46 33.38 32.81 31.48 30.35 29.87 29.79 30.22 29.96 30.48 31.00 30.17 29.45 28.68 28.33 27.88 27.77 27.89 28.60 28.40 29.78
36.16 32.03 25.44 28.08 31.49 34.50 32.39 33.96 34.41 32.45 29.62 26.03 22.76 22.27 30.85 32.65 31.82 32.96 31.84 31.93 33.74 33.50 32.67 33.17 32.93 32.06 30.58 29.88 29.48 28.89 29.10 28.65 29.38 29.27 28.00 27.45 26.64 26.20 26.20 26.42 27.00 27.50 26.99 27.62
37.36 29.22 28.52 24.18 24.86 29.71 30.23 31.99 32.93 31.22 23.89 25.29 24.99 23.93 25.97 29.35 30.54 31.22 31.82 32.37 32.84 33.09 33.04 32.69 32.43 31.68 30.69 29.83 28.54 28.08 28.36 28.36 28.08 27.96 26.85 25.81 25.48 25.16 25.14 25.84 25.98 26.32 26.28 26.04
33.22 23.68 25.97 25.48 25.63 30.96 31.86 32.62 33.34 29.94 28.94 25.07 26.99 25.48 27.66 30.38 30.72 31.43 31.75 31.44 31.80 31.69 31.65 31.68 32.18 31.41 30.10 28.77 28.01 27.88 27.57 27.64 27.26 26.71 25.75 24.75 24.93 24.72 25.18 25.22 25.36 25.71 25.85 25.75
33.64 26.16 23.98 22.48 24.86 29.19 28.55 30.74 31.01 32.56 31.32 26.83 26.51 25.63 30.34 29.86 29.66 29.09 30.96 31.22 31.06 31.12 31.72 32.44 33.15 32.10 30.30 29.27 27.75 27.74 26.59 26.71 26.68 25.37 24.24 24.40 24.06 24.43 24.77 24.86 25.18 24.91 24.61 24.06
28.97 25.53 22.82 21.59 20.04 19.81 26.32 23.26 27.68 29.02 29.60 28.02 24.88 29.18 31.57 27.92 30.02 30.32 30.05 30.80 31.04 30.95 31.16 31.46 31.90 31.33 29.71 27.87 27.47 25.57 25.53 26.09 24.84 24.34 23.97 23.28 23.55 23.50 23.71 23.91 23.81 22.98 22.60 23.35
24.94 23.64 20.10 16.79 13.30 10.23 21.90 24.22 23.62 28.09 27.87 29.08 27.62 30.35 32.29 30.60 29.39 30.05 30.73 31.12 31.22 30.88 30.73 31.15 30.78 28.92 27.52 25.73 24.54 24.34 24.89 23.96 23.62 22.77 22.26 22.22 22.45 22.52 23.12 22.80 22.28 21.41 21.64 21.82
27.76 22.89 10.84 12.11 0.96 13.91 20.37 22.72 24.11 25.51 26.11 27.97 27.50 26.24 26.73 27.67 27.80 25.22 29.29 30.19 30.88 30.50 30.77 30.35 29.42 27.87 25.62 23.73 23.38 23.25 23.22 22.74 22.01 21.36 21.09 21.48 21.65 21.86 21.34 21.46 20.40 20.28 20.43 21.39
24.93 22.34 17.95 1.14 5.56 5.44 20.01 22.07 25.24 26.03 19.23 28.52 27.98 26.61 26.71 26.98 22.08 23.02 28.96 30.33 30.04 30.26 29.48 28.16 26.65 25.52 23.85 22.37 22.17 21.90 22.01 21.08 19.51 20.02 20.97 21.06 21.49 20.83 19.60 19.55 19.11 19.17 19.81 20.24
5.77 5.86 7.30 0.11 1.38 10.77 21.91 24.65 25.42 17.01 22.16 26.84 28.76 27.76 26.74 25.30 26.30 27.75 29.71 28.65 29.34 29.05 28.73 27.17 25.33 24.78 23.86 22.20 21.14 20.61 20.28 19.12 19.87 20.16 20.09 19.72 19.34 18.46 18.64 18.34 16.86 17.38 17.10 17.98
10.80 8.64 3.23 -2.05 1.95 9.99 24.30 23.97 22.08 25.62 25.95 27.38 27.30 27.46 27.65 27.50 27.75 27.74 28.37 28.17 28.06 27.65 27.32 26.88 23.98 23.44 22.26 21.05 19.82 19.56 18.59 19.58 18.80 18.37 17.81 16.49 15.04 16.17 17.80 11.79 13.04 12.21 12.22 11.71
10.81 17.68 13.09 15.97 16.96 24.87 25.31 25.33 27.31 28.44 27.61 27.49 27.84 28.17 28.43 26.97 26.88 27.42 27.42 27.38 27.29 26.71 26.95 25.55 23.47 22.61 20.82 19.49 18.72 18.61 18.71 17.85 17.23 14.88 12.71 11.36 12.20 14.67 15.01 8.74 11.31 10.39 9.38 9.29
18.98 21.60 17.16 17.77 21.76 24.68 26.10 26.50 27.81 28.43 27.81 28.73 27.52 27.57 27.59 26.95 27.24 27.63 27.07 27.14 26.50 26.01 25.19 22.88 20.52 19.32 20.12 17.91 18.20 17.22 16.90 16.50 11.14 9.52 11.21 12.38 11.08 11.45 10.53 13.57 13.53 8.97 9.05 9.34
20.17 21.30 18.62 17.33 22.76 23.72 25.61 26.32 27.95 28.00 27.77 27.72 27.14 27.66 27.54 27.33 27.07 26.78 26.29 26.24 25.81 25.38 24.22 22.13 19.80 19.59 18.37 16.27 15.27 11.88 14.20 13.47 12.01 11.21 11.80 11.85 11.42 8.76 10.35 11.99 11.10 13.16 13.92 13.37
21.75 20.86 18.50 17.62 24.38 24.50 25.20 26.55 27.11 26.83 27.12 28.03 27.43 26.09 26.41 26.87 26.74 26.08 25.46 25.26 24.48 23.53 21.98 18.61 18.01 15.72 15.20 12.21 12.97 11.64 11.01 11.42 9.53 10.97 11.25 9.85 9.62 7.83 8.71 8.13 8.89 15.09 16.81 17.63
MSLP
1017.87 1017.99 1017.11 1016.59 1016.37 1016.22 1016.58 1017.14 1017.86 1018.29 1019.41 1019.75 1021.32 1021.86 1022.49 1022.83 1022.96 1023.33 1023.83 1024.12 1024.22 1024.48 1024.76 1024.17 1024.28 1023.95 1023.37 1023.01 1022.69 1022.39 1021.88 1021.46 1020.69 1020.54 1020.28 1020.78 1021.18 1021.42 1021.43 1021.66 1021.76 1021.72 1021.69 1021.47
1018.30 1017.38 1017.36 1017.05 1016.83 1016.44 1016.67 1017.11 1017.99 1019.03 1019.85 1020.64 1022.28 1022.96 1023.40 1023.51 1024.07 1024.56 1024.84 1024.84 1024.90 1025.38 1025.32 1025.25 1025.11 1024.81 1024.48 1024.21 1023.79 1023.37 1023.00 1022.56 1022.03 1021.52 1021.39 1021.47 1021.78 1022.25 1022.55 1022.54 1022.62 1022.61 1022.50 1022.51
1017.80 1017.38 1017.14 1017.02 1016.80 1016.71 1016.57 1016.66 1017.81 1018.55 1020.34 1021.39 1022.68 1023.79 1024.11 1024.40 1024.48 1024.99 1025.29 1025.40 1025.47 1025.97 1025.97 1026.16 1026.14 1025.85 1025.40 1025.13 1024.84 1024.41 1024.03 1023.66 1023.33 1022.82 1022.36 1022.48 1022.69 1023.31 1023.30 1023.70 1023.70 1023.67 1023.52 1023.28
1018.20 1017.23 1016.72 1016.80 1016.60 1016.64 1016.51 1016.65 1017.43 1018.84 1019.95 1021.52 1022.12 1023.44 1024.19 1024.56 1025.13 1025.36 1025.66 1025.79 1026.17 1026.36 1026.54 1026.59 1026.67 1026.57 1026.40 1026.10 1025.65 1025.32 1024.94 1024.59 1024.42 1024.15 1023.82 1023.97 1024.46 1024.69 1025.20 1025.01 1025.00 1024.61 1024.24 1024.13
1017.64 1017.19 1017.03 1016.65 1016.00 1016.37 1016.68 1016.89 1017.97 1019.40 1020.62 1021.16 1022.31 1023.19 1023.19 1024.24 1025.10 1025.34 1025.73 1025.88 1026.45 1026.77 1027.02 1027.12 1027.07 1027.14 1027.09 1026.75 1026.40 1026.10 1025.83 1025.62 1025.56 1025.44 1025.38 1025.63 1025.76 1025.89 1025.94 1025.74 1025.45 1025.35 1025.02 1024.81
1017.67 1017.09 1016.87 1016.23 1016.14 1016.20 1016.77 1017.78 1019.40 1020.84 1021.40 1021.88 1021.47 1022.36 1023.41 1023.56 1023.77 1025.06 1025.64 1026.10 1026.47 1026.84 1027.10 1027.24 1027.37 1027.50 1027.55 1027.38 1027.10 1026.82 1026.60 1026.72 1026.66 1026.53 1026.55 1026.70 1026.81 1026.70 1026.52 1026.50 1026.31 1026.13 1025.85 1025.45
1017.63 1017.30 1016.72 1016.25 1016.19 1016.46 1016.85 1017.85 1020.03 1021.26 1021.92 1022.09 1021.47 1022.63 1022.56 1022.99 1023.34 1023.87 1025.23 1026.11 1026.68 1026.96 1027.25 1027.39 1027.82 1027.93 1028.02 1028.05 1028.03 1027.92 1027.64 1027.53 1027.68 1027.47 1027.47 1027.54 1027.70 1027.63 1027.52 1027.48 1027.34 1027.13 1026.73 1026.36
1018.02 1018.02 1016.89 1016.17 1015.94 1015.73 1016.71 1016.95 1018.35 1019.41 1021.25 1022.33 1022.58 1023.02 1023.01 1023.08 1023.50 1024.44 1025.45 1026.08 1026.76 1027.45 1027.81 1028.20 1028.33 1028.33 1028.39 1028.46 1028.65 1028.65 1028.82 1028.47 1028.32 1028.52 1028.53 1028.54 1028.36 1028.33 1028.22 1028.21 1028.03 1027.88 1027.63 1027.31
1018.38 1017.79 1017.12 1016.68 1016.23 1016.24 1017.19 1017.49 1018.04 1019.68 1021.42 1022.28 1023.08 1023.90 1023.74 1024.01 1024.51 1025.10 1025.87 1026.38 1027.02 1027.58 1028.11 1028.65 1028.83 1029.00 1029.31 1029.19 1029.30 1029.23 1029.36 1029.27 1029.24 1029.25 1029.26 1029.18 1029.05 1028.89 1028.98 1028.88 1028.85 1028.67 1028.23 1027.49
1018.84 1018.25 1017.68 1017.23 1016.89 1016.94 1016.92 1017.89 1019.31 1019.82 1021.55 1022.44 1023.17 1023.81 1023.43 1024.26 1024.80 1025.26 1025.88 1026.38 1027.10 1027.70 1028.33 1028.73 1029.20 1029.47 1029.78 1029.78 1029.87 1029.97 1029.99 1030.07 1029.81 1029.68 1029.77 1029.83 1029.78 1029.58 1029.51 1029.35 1029.22 1029.23 1028.84 1028.39
1018.90 1018.57 1018.65 1017.96 1017.69 1017.30 1017.47 1017.66 1018.82 1019.97 1020.66 1020.89 1022.61 1022.58 1022.19 1022.82 1024.02 1024.76 1025.56 1026.26 1026.87 1027.58 1028.39 1029.11 1029.49 1029.48 1029.69 1030.09 1030.32 1030.57 1030.47 1030.41 1030.39 1030.20 1030.45 1030.31 1030.30 1030.11 1030.01 1029.88 1029.60 1029.34 1029.10 1028.85
1019.16 1019.28 1019.15 1018.76 1018.28 1018.14 1017.66 1017.48 1017.89 1019.09 1020.58 1020.91 1021.35 1022.10 1021.73 1022.33 1023.58 1024.58 1025.59 1026.26 1026.98 1027.39 1028.18 1029.02 1029.45 1029.78 1030.20 1030.59 1030.61 1030.78 1031.00 1030.63 1030.73 1030.61 1030.75 1030.69 1030.67 1030.49 1030.38 1030.34 1030.03 1029.62 1029.47 1028.58
1019.89 1019.74 1019.77 1020.08 1019.76 1018.92 1018.40 1018.19 1018.03 1018.58 1019.64 1021.25 1022.18 1022.69 1022.38 1022.79 1023.92 1024.78 1025.57 1026.24 1026.89 1027.59 1028.30 1028.84 1029.48 1029.96 1030.40 1030.87 1030.85 1030.77 1030.86 1030.76 1030.95 1030.93 1031.26 1031.41 1031.18 1030.83 1030.76 1030.73 1030.42 1029.80 1029.26 1029.82
1020.32 1020.52 1020.28 1020.39 1019.87 1019.25 1019.22 1018.80 1018.69 1018.97 1020.34 1021.29 1021.87 1022.81 1023.34 1023.50 1024.09 1024.89 1025.75 1026.37 1027.04 1027.53 1028.24 1028.76 1029.52 1029.95 1030.20 1030.77 1030.86 1030.77 1031.04 1031.17 1031.29 1031.54 1031.76 1031.61 1031.49 1031.10 1031.15 1030.65 1030.35 1030.21 1030.33 1029.90
1021.19 1021.32 1021.50 1021.24 1021.06 1020.03 1019.55 1019.38 1019.37 1019.64 1020.29 1021.20 1021.63 1022.10 1022.32 1022.75 1023.60 1024.64 1025.36 1026.28 1026.95 1027.85 1028.33 1028.64 1029.46 1029.88 1030.22 1030.71 1030.91 1031.12 1031.26 1031.53 1031.65 1031.68 1031.77 1031.76 1031.49 1031.25 1031.08 1030.85 1030.77 1030.78 1030.46 1030.06
1021.51 1022.19 1022.34 1022.64 1022.07 1021.31 1021.13 1020.54 1020.11 1020.03 1020.62 1021.28 1021.86 1022.29 1022.31 1023.39 1024.04 1024.78 1025.34 1026.03 1026.82 1027.71 1028.29 1028.67 1029.16 1029.70 1030.33 1030.94 1031.15 1031.18 1031.32 1031.46 1031.47 1031.50 1031.62 1031.63 1031.64 1031.60 1031.52 1031.30 1031.19 1030.77 1030.37 1030.19
1022.31 1022.73 1023.79 1024.94 1024.30 1023.29 1023.09 1021.91 1020.97 1020.73 1020.78 1021.21 1022.04 1021.85 1022.43 1023.65 1023.96 1024.45 1025.20 1025.88 1026.83 1027.69 1028.17 1028.61 1029.14 1029.83 1030.43 1030.73 1030.85 1031.03 1031.15 1031.29 1031.39 1031.45 1031.68 1031.87 1031.84 1031.76 1031.64 1031.45 1031.17 1030.89 1030.60 1030.29
1023.18 1024.10 1025.45 1026.74 1026.13 1025.19 1023.42 1022.28 1021.68 1021.17 1021.17 1021.33 1021.68 1021.91 1022.15 1023.02 1024.00 1024.71 1025.25 1025.95 1026.76 1027.43 1028.10 1028.69 1029.31 1029.86 1030.18 1030.53 1030.86 1030.96 1031.13 1031.27 1031.46 1031.67 1031.81 1031.88 1031.92 1031.88 1031.67 1031.44 1031.25 1031.04 1030.81 1030.59
1024.18 1025.24 1027.36 1028.42 1028.06 1026.51 1023.87 1022.57 1021.98 1021.54 1021.71 1021.59 1022.10 1022.90 1023.40 1023.97 1024.66 1025.56 1025.67 1025.99 1026.59 1027.32 1027.95 1028.56 1029.15 1029.70 1030.12 1030.48 1030.82 1031.13 1031.25 1031.43 1031.64 1031.65 1031.75 1031.86 1031.90 1031.70 1031.54 1031.45 1031.42 1031.21 1030.97 1030.58
1025.56 1026.08 1027.40 1029.49 1028.91 1026.99 1023.96 1022.52 1021.89 1021.78 1022.15 1021.75 1022.34 1023.21 1023.81 1024.41 1025.57 1025.87 1025.83 1026.23 1026.81 1027.37 1028.09 1028.76 1029.22 1029.70 1030.23 1030.76 1031.05 1031.16 1031.26 1031.41 1031.51 1031.71 1031.77 1031.74 1031.71 1031.73 1031.71 1031.62 1031.57 1031.39 1031.11 1030.77
1027.96 1028.46 1029.55 1029.76 1028.56 1026.15 1023.70 1022.80 1022.30 1022.64 1022.60 1022.01 1022.35 1023.06 1023.90 1024.49 1024.71 1024.98 1025.75 1026.43 1026.92 1027.53 1028.21 1028.69 1029.31 1029.83 1030.17 1030.49 1030.81 1031.07 1031.21 1031.35 1031.40 1031.53 1031.54 1031.60 1031.72 1031.77 1031.72 1031.72 1031.68 1031.41 1031.17 1030.85
1029.06 1029.18 1029.84 1029.51 1027.89 1025.53 1023.38 1023.06 1022.71 1022.12 1021.98 1022.19 1022.72 1023.23 1023.97 1024.33 1024.76 1025.26 1025.96 1026.60 1027.11 1027.66 1028.31 1028.79 1029.37 1029.70 1030.01 1030.32 1030.75 1030.97 1031.05 1030.90 1031.21 1031.48 1031.66 1031.76 1031.82 1031.78 1031.70 1031.66 1031.49 1031.30 1031.03 1030.73
1028.69 1027.65 1027.44 1027.40 1025.42 1023.70 1022.99 1022.49 1021.94 1021.92 1022.02 1022.27 1022.57 1023.12 1023.52 1024.50 1025.11 1025.58 1026.15 1026.66 1027.12 1027.58 1028.14 1028.51 1029.08 1029.55 1029.93 1030.22 1030.47 1030.63 1030.56 1030.84 1031.11 1031.40 1031.63 1031.75 1031.75 1031.74 1031.58 1031.52 1031.44 1031.40 1031.03 1030.85
1027.37 1026.65 1026.71 1026.13 1024.03 1023.40 1022.74 1022.50 1022.19 1022.08 1022.16 1022.31 1022.69 1023.22 1023.86 1024.46 1024.98 1025.52 1026.08 1026.55 1027.03 1027.48 1027.97 1028.42 1028.98 1029.41 1029.51 1029.83 1030.02 1030.10 1030.35 1030.68 1031.16 1031.62 1031.61 1031.60 1031.69 1031.55 1031.49 1031.28 1030.97 1030.79 1030.59 1030.16
1026.06 1025.84 1025.31 1024.82 1023.39 1023.07 1022.33 1022.14 1021.95 1022.20 1022.38 1022.63 1023.01 1023.37 1023.90 1024.56 1025.14 1025.62 1026.21 1026.61 1026.95 1027.38 1027.73 1028.10 1028.67 1028.97 1029.18 1029.55 1029.71 1029.87 1030.20 1030.59 1031.06 1031.24 1031.28 1031.24 1031.13 1031.10 1030.98 1030.79 1030.46 1030.10 1029.90 1029.56
1024.37 1023.52 1023.55 1022.57 1021.47 1021.37 1021.30 1021.14 1021.75 1022.41 1022.60 1022.92 1023.35 1023.91 1024.33 1024.76 1025.32 1025.75 1026.27 1026.52 1026.93 1027.35 1027.74 1028.24 1028.44 1028.71 1028.76 1029.14 1029.37 1029.47 1029.82 1030.24 1030.65 1030.82 1030.76 1030.80 1030.93 1030.88 1030.78 1030.66 1030.15 1029.73 1029.26 1028.84
Wind_Speed
4 4 13 9 4 6 9 17 11 2 5 13 7 10 8 7 11 11 10 8 10 11 7 10 11 11 11 13 13 13 13 13 9 4 3 7 8 7 9 10 14 14 12 12
4 12 4 6 5 5 11 15 9 7 8 9 6 10 9 10 5 5 6 7 8 7 10 11 11 11 12 11 12 13 13 13 10 7 4 5 5 7 7 8 12 13 14 13
5 2 9 7 6 9 5 13 7 10 9 7 10 3 1 5 6 7 7 6 8 7 8 8 10 10 9 12 11 12 12 13 12 11 7 6 5 6 6 9 8 10 11 12
5 5 15 7 12 11 11 6 12 18 16 6 11 4 7 3 5 5 5 6 7 7 8 8 8 10 9 9 8 11 13 14 13 13 11 14 9 7 5 5 6 7 11 12
6 5 7 11 11 8 5 9 12 9 4 9 11 3 2 14 8 8 6 7 7 6 6 7 7 8 7 7 8 9 12 14 13 14 12 8 8 5 4 5 8 9 8 11
7 2 7 7 5 7 9 11 10 4 3 5 13 8 6 11 12 11 8 8 8 7 6 6 6 6 7 7 9 9 12 13 13 13 13 12 11 9 8 9 8 7 6 8
5 4 2 4 8 8 9 17 3 5 5 5 10 5 3 8 15 15 14 10 7 6 6 5 6 7 7 9 9 8 11 12 10 12 12 11 9 9 9 8 7 9 7 7
6 8 7 4 3 10 16 6 6 8 7 4 3 6 3 2 8 11 10 10 8 7 5 5 5 6 7 8 7 8 9 11 10 10 10 9 10 6 7 8 6 6 6 6
6 4 1 1 2 9 6 6 3 7 4 3 5 2 6 4 8 11 11 10 8 7 6 6 6 5 5 6 6 7 7 8 8 8 7 8 8 9 7 8 7 5 6 7
4 3 1 1 2 1 5 9 4 2 7 4 2 3 4 11 13 11 11 11 8 7 7 6 5 6 5 6 6 7 7 7 7 7 7 7 7 6 5 5 7 7 7 8
3 1 1 2 1 7 4 5 5 4 1 5 5 6 6 19 17 16 12 11 11 9 8 6 5 5 6 6 6 5 6 6 6 5 5 5 5 6 6 6 7 7 6 7
3 2 4 2 1 2 1 5 5 5 3 2 1 4 5 14 14 13 11 10 8 9 8 7 6 6 5 5 5 5 4 5 5 5 5 7 6 6 6 6 6 6 7 7
3 3 3 7 3 4 3 1 4 5 4 5 5 3 5 11 13 12 12 9 9 8 8 7 6 5 5 4 4 5 5 5 5 6 5 5 5 5 6 5 6 6 7 6
3 2 1 1 1 3 6 4 3 5 4 4 3 6 5 13 15 11 9 9 8 8 8 6 6 5 5 4 4 4 4 5 4 4 3 4 5 5 4 5 5 6 5 5
2 4 3 4 5 0 3 7 5 4 4 5 7 11 17 18 17 14 10 8 9 8 7 7 6 5 4 3 2 2 1 1 0 2 3 3 4 4 4 5 5 5 5 6
2 3 2 7 10 5 5 3 5 7 4 6 7 1 7 6 8 8 11 11 10 8 7 6 6 6 5 5 5 3 2 1 1 2 3 3 4 4 3 4 4 4 5 5
2 4 3 2 4 4 4 4 1 4 2 8 6 7 14 7 12 13 10 9 10 9 8 7 7 6 6 6 4 3 2 1 1 1 1 2 2 2 3 3 3 5 6 6
4 5 4 2 4 2 5 2 2 2 1 3 2 8 14 11 6 6 5 8 8 8 7 6 6 5 4 4 3 2 2 2 2 2 1 1 2 2 3 3 4 5 4 5
3 4 4 5 3 5 4 4 5 4 5 3 6 6 6 8 7 2 3 6 8 8 7 6 6 5 5 6 4 3 3 3 3 3 2 2 3 3 3 4 4 5 5 5
4 7 6 4 6 5 4 2 2 2 5 7 8 9 11 7 5 5 6 6 7 7 5 6 6 4 5 5 5 4 4 4 5 4 4 3 2 3 3 4 4 3 4 6
5 6 5 2 1 8 5 3 0 7 7 4 9 10 9 6 5 6 8 5 6 6 7 5 6 6 6 5 4 4 5 6 5 4 3 3 2 3 4 3 2 3 5 5
5 5 2 3 5 6 6 3 7 5 0 5 6 7 8 6 7 6 8 7 7 8 6 6 5 5 5 5 5 6 7 5 5 4 3 2 3 3 3 3 3 3 4 4
2 6 5 8 7 3 6 3 4 4 3 5 8 7 9 8 6 7 7 8 8 7 6 5 6 6 6 7 7 7 4 5 5 3 3 3 3 4 3 3 4 3 2 3
4 3 3 4 3 7 5 3 4 4 3 4 4 7 9 8 8 6 5 5 5 5 6 4 5 7 7 6 6 7 5 4 4 5 5 3 4 4 3 2 3 2 3 3
5 6 6 5 7 5 8 9 7 5 2 4 4 6 9 8 6 5 5 7 6 6 5 5 6 6 7 5 6 5 6 6 5 5 4 4 3 3 3 3 3 3 3 4
7 9 7 8 8 6 5 8 8 9 9 9 8 5 4 6 7 5 7 6 5 6 4 4 7 6 6 5 6 6 6 6 5 5 4 3 3 3 3 3 4 7 10 11
Wind_Direction
199 159 208 194 158 124 147 178 204 180 103 70 70 78 53 26 52 67 66 63 65 54 30 38 27 23 29 31 30 26 26 9 22 16 30 67 64 49 53 50 41 39 31 24
155 226 187 166 219 174 166 176 168 118 127 84 62 71 58 48 48 59 85 71 71 62 41 29 26 25 27 30 30 30 31 25 23 26 29 50 68 56 50 43 43 35 34 28
190 245 170 185 185 206 196 177 174 139 131 75 119 320 57 69 62 73 60 70 63 65 60 31 27 20 27 28 24 33 33 38 31 31 41 48 51 34 36 28 30 30 34 31
239 263 185 180 205 197 201 164 143 142 155 173 172 180 189 154 98 71 67 71 68 69 61 53 40 35 23 23 27 40 42 42 36 33 48 55 56 54 16 20 18 24 29 28
213 196 176 198 193 175 194 105 131 147 126 118 184 151 205 155 177 154 136 102 87 73 73 62 50 44 28 26 32 45 50 48 42 43 47 50 56 45 28 23 28 22 22 28
203 214 178 200 156 187 142 90 59 83 43 211 183 177 195 185 179 157 145 130 126 112 95 77 67 64 47 28 42 45 54 48 42 44 43 42 39 36 32 23 22 16 12 17
180 196 251 174 117 153 136 143 132 178 189 240 161 166 216 199 167 159 154 144 128 117 112 103 85 70 59 46 39 46 48 51 41 48 45 40 37 38 40 27 20 13 9 12
165 201 184 188 203 176 167 166 157 185 170 158 173 212 276 137 126 128 134 132 124 115 100 88 80 76 71 62 50 50 45 50 42 45 43 38 36 37 38 29 23 19 12 9
187 223 276 174 135 163 174 189 59 102 32 108 138 8 359 70 114 132 140 135 133 128 119 99 84 80 74 69 59 61 58 53 46 45 50 40 36 38 30 28 21 11 8 11
192 159 309 148 127 24 181 128 102 62 158 173 143 207 205 183 172 161 156 150 144 136 129 125 123 111 89 73 60 53 50 47 39 46 41 42 32 31 26 27 24 11 4 0
155 2 284 151 163 166 144 178 131 103 305 134 137 244 201 181 180 169 162 156 154 149 146 143 132 112 98 82 72 63 56 52 42 45 45 47 36 30 27 27 18 11 1 358
107 151 188 156 102 284 273 158 144 123 183 49 118 239 319 175 166 155 158 159 154 148 149 149 139 121 101 95 85 73 56 53 39 41 41 36 28 24 23 16 6 2 1 4
107 228 139 135 32 335 162 131 115 90 77 171 148 250 27 132 144 159 154 154 151 147 147 144 138 133 118 98 84 74 51 43 31 36 36 24 20 21 16 4 357 3 6 350
205 56 117 161 266 136 143 136 117 123 112 163 196 158 173 160 159 157 156 153 153 155 153 146 143 135 117 103 77 67 51 36 27 42 37 30 14 15 3 1 4 4 350 356
147 103 98 83 325 36 124 149 145 96 148 149 190 175 191 177 163 163 158 150 146 155 152 157 156 156 137 115 103 107 107 119 169 78 48 25 9 7 3 3 359 349 357 358
6 118 83 36 9 43 77 107 130 118 119 83 122 278 129 129 125 144 158 157 161 162 165 159 156 161 166 187 190 176 194 182 65 66 36 11 5 357 357 347 339 345 347 335
351 117 54 42 352 23 105 247 117 146 149 146 168 203 153 157 170 170 165 163 169 170 167 166 177 186 191 192 185 201 217 169 145 142 31 4 356 348 349 333 348 357 345 335
106 68 35 148 9 46 241 287 318 123 117 177 105 162 172 161 114 123 145 162 171 162 169 177 184 191 177 176 182 194 208 205 205 214 273 344 353 332 334 340 351 333 320 313
34 120 85 123 153 280 317 223 174 161 250 205 137 108 105 105 72 55 161 160 172 172 177 184 181 181 176 183 190 201 218 220 224 242 276 297 299 314 335 332 329 319 321 319
53 55 105 55 120 179 250 212 221 107 312 183 145 149 139 129 143 231 181 160 164 170 162 172 181 176 176 196 189 207 238 231 238 234 237 253 296 317 313 313 315 297 302 307
2 3 112 91 125 290 241 219 66 96 235 159 160 153 149 150 189 173 152 161 168 174 185 175 180 193 205 179 180 233 237 237 229 218 240 259 277 287 275 290 280 288 301 311
158 118 203 70 55 293 184 75 164 213 243 163 139 154 151 150 141 145 165 174 178 186 187 186 191 211 201 187 190 234 238 230 198 210 239 263 270 276 274 264 278 289 287 299
316 180 188 175 214 245 212 215 217 178 168 189 155 175 160 141 168 170 194 202 203 203 204 194 204 220 207 204 200 228 234 190 194 187 229 247 266 266 257 252 284 292 289 283
243 187 193 59 245 232 225 240 234 193 203 151 157 153 158 164 173 190 207 209 206 207 213 194 190 223 236 209 212 218 194 183 166 215 236 241 246 270 273 272 264 258 276 282
199 137 180 265 268 300 252 217 203 209 146 144 147 163 178 166 188 200 213 217 224 228 219 201 213 233 238 210 223 203 197 177 203 221 234 242 232 236 267 267 252 263 251 257
188 181 174 217 216 170 230 207 183 200 207 202 177 174 178 176 206 196 224 222 221 231 220 218 228 233 241 222 230 211 201 185 197 221 226 222 227 248 252 268 289 286 295 308